Location: Roanoke
(37.2710°N, 79.9420°W)
Time: 16:10:44
(UTC-05:00)

Transit 2A - Pass Details

Date: 30 November 2019
Orbit: 602 x 957 km, 66.7° (Epoch: 10 December)

Event Time Altitude Azimuth Distance (km) Brightness Sun altitude
Rises 17:49:17 0° 344° (NNW) 2,861 8.9 -9.3°
Reaches altitude 10° 17:51:49 10° 358° (N) 1,969 8.0 -9.8°
Maximum altitude 17:55:30 25° 55° (NE) 1,257 6.6 -10.5°
Drops below altitude 10° 17:59:20 10° 111° (ESE) 2,058 7.8 -11.2°
Enters shadow 18:01:04 - 121° (ESE) 2,664 8.4 -11.5°
Sets 18:02:02 0° 124° (SE) 3,020 - -11.7°
